Tracking 28794 objects as of 19-Apr-2024
HD Live streaming from Space Station
objects crossing your sky now

THOR ABLESTAR DEB

Track THOR ABLESTAR DEB now!
10-day predictions


NORAD ID: 469
Int'l Code: 1961-015FF
Perigee: 754.8 km
Apogee: 833.9 km
Inclination: 66.8 °
Period: 100.6 minutes
Semi major axis: 7165 km
RCS: 0.056 m2 (small)
Launch date: June 29, 1961
Source: United States (US)
Launch site: AIR FORCE EASTERN TEST RANGE (AFETR)

Note: This is SATELLITE DEBRIS
Your satellite tracking list
Your tracking list is empty




NASA's NSSDC Master Catalog

Two Line Element Set (TLE):
1   469U 61015FF  24110.27780811  .00004472  00000-0  16877-2 0  9992
2   469  66.8353  60.4331 0055215  65.9640 294.7225 14.31352011240364
Source of the keplerian elements: AFSPC